Printer-friendly version

IAU Minor Planet Center

Minor Planet Center

MPEC 2004-F34 : 2004 FZ1

The following Minor Planet Electronic Circular may be linked-to from your own Web pages, but must not otherwise be redistributed electronically.


Read MPEC 2004-F33 Read MPEC 2004-F35


M.P.E.C. 2004-F34                                Issued 2004 Mar. 19, 15:54 UT

     The Minor Planet Electronic Circulars contain information on unusual
         minor planets and routine data on comets.  They are published
   on behalf of Commission 20 of the International Astronomical Union by the
          Minor Planet Center, Smithsonian Astrophysical Observatory,
                          Cambridge, MA 02138, U.S.A.

         Supported in part by the Steven and Michele Kirsch Foundation
             Prepared using the Tamkin Foundation Computer Network

                              MPC@CFA.HARVARD.EDU
          URL http://cfa-www.harvard.edu/iau/mpc.html  ISSN 1523-6714

                                   2004 FZ1

Observations:
     K04F01Z* C2004 03 18.17476 07 02 36.74 +20 06 56.2          19.2   EF034704
     K04F01Z  C2004 03 18.18610 07 02 35.76 +20 07 45.4          19.4   EF034704
     K04F01Z  C2004 03 18.19756 07 02 34.71 +20 08 35.6          19.5   EF034704
     K04F01Z  C2004 03 18.20889 07 02 33.66 +20 09 25.0          19.5   EF034704
     K04F01Z  C2004 03 18.22018 07 02 32.72 +20 10 14.8          19.0   EF034704
     K04F01Z  C2004 03 19.14942 07 01 16.15 +21 17 52.5          19.2 R EF034926
     K04F01Z  C2004 03 19.15065 07 01 16.04 +21 17 57.9          18.8 R EF034926
     K04F01Z  C2004 03 19.15189 07 01 15.99 +21 18 03.3          20.7 R EF034926
     K04F01Z  C2004 03 19.19123 07 01 12.42 +21 20 51.0          19.5 R EF034649
     K04F01Z  C2004 03 19.19301 07 01 12.28 +21 20 58.6          19.3 R EF034649
     K04F01Z  C2004 03 19.19479 07 01 12.12 +21 21 06.3          19.3 R EF034649
     K04F01Z  C2004 03 19.19656 07 01 11.97 +21 21 13.8          19.1 R EF034649
     K04F01Z 5C2004 03 19.20231 07 01 11.78 +21 21 38.1          19.0 R EF034673
     K04F01Z 5C2004 03 19.20313 07 01 11.64 +21 21 44.4                 EF034673
     K04F01Z 5C2004 03 19.20579 07 01 11.43 +21 21 55.5                 EF034673
     K04F01Z 5C2004 03 19.21019 07 01 11.04 +21 22 14.7                 EF034673

Observer details:
649 Powell Observatory, Louisburg.  Observer R. Fredrick.  0.75-m Newtonian
    + CCD.
673 Table Mountain Observatory, Wrightwood.  Observer A. Grigsby.  Measurer
    J. Young.  0.6-m reflector + CCD.
704 Lincoln Laboratory ETS, New Mexico.  Observers M. Blythe, F. Shelly,
    M. Bezpalko, R. Huber, L. Manguso, D. Torres, R. Kracke, M. McCleary,
    H. Stange, A. Milner.  Measurers J. Stuart, R. Sayer, J. Evans, J. Kommers.
    1.0-m f/2.15 reflector + CCD.
926 Tenagra II Observatory.  Observers P. R. Holvorcem, M. Schwartz.  0.81-m
    f/7 Ritchey-Chretien + CCD.

Orbital elements:
2004 FZ1
Epoch 2004 Mar. 16.0 TT = JDT 2453080.5                 MPC
M 330.91511              (2000.0)            P               Q
n   0.36595982     Peri.   86.40709     -0.33643850     +0.86785385
a   1.9357404      Node   152.52741     -0.78361327     -0.47329357
e   0.5588118      Incl.   52.41305     +0.52226371     -0.15107248
P   2.69           H   18.4           G   0.15
From 15 observations 2004 Mar. 18-19.

Ephemeris:
2004 FZ1                 a,e,i = 1.94, 0.56, 52                  q = 0.8540
Date    TT    R. A. (2000) Decl.     Delta      r     Elong.  Phase     V
2004 03 16    07 05.83   +17 25.3    0.595    1.322   110.0    45.0    19.6
2004 03 26    06 53.37   +29 06.8    0.638    1.239    96.0    53.2    19.8
2004 04 05    06 46.24   +38 56.0    0.695    1.158    84.1    59.3    20.1
2004 04 15    06 43.06   +47 08.6    0.756    1.080    74.2    63.4    20.2
2004 04 25    06 42.13   +54 11.0    0.810    1.007    66.4    66.2    20.3
2004 05 05    06 41.07   +60 24.9    0.852    0.945    60.3    68.1    20.3

Kyle E. Smalley              (C) Copyright 2004 MPC           M.P.E.C. 2004-F34

Read MPEC 2004-F33 Read MPEC 2004-F35


Our Web policy. Index to the CBAT/MPC/ICQ pages.


Valid HTML 4.01!